ACA1121 CYXU-KSYR

Flight info

Callsign ACA1121
Flight time N/A
Altitude 27000
Route DERLO Q822 HOZIR DCT SYR
Aircraft A20N/M-SDE2E3FGHIRWXY/LB1

Departure

Time 2026-04-28 22:43
Airport London International Airport (CYXU)

Arrival

Time N/A
Airport Syracuse Hancock International Airport (KSYR)
Time Latitude Longitude Altitude Speed Heading
2026-04-28 22:20 43.02877 -81.14788 906 ft 0 kts 299°
2026-04-28 22:35 43.02873 -81.14781 906 ft 2 kts 311°
2026-04-28 22:36 43.02868 -81.14761 909 ft 2 kts 245°
2026-04-28 22:36 43.02879 -81.14747 906 ft 3 kts 179°
2026-04-28 22:36 43.02896 -81.14754 906 ft 2 kts 144°
2026-04-28 22:36 43.02899 -81.14757 905 ft 0 kts 140°
2026-04-28 22:37 43.02896 -81.14753 906 ft 1 kts 131°
2026-04-28 22:37 43.02882 -81.14724 907 ft 6 kts 124°
2026-04-28 22:37 43.02854 -81.14674 906 ft 8 kts 130°
2026-04-28 22:38 43.02813 -81.14621 905 ft 9 kts 138°
2026-04-28 22:38 43.02774 -81.14574 906 ft 2 kts 138°
2026-04-28 22:38 43.02739 -81.14531 907 ft 9 kts 138°
2026-04-28 22:38 43.02694 -81.14477 908 ft 9 kts 140°
2026-04-28 22:39 43.02643 -81.14419 907 ft 11 kts 139°
2026-04-28 22:39 43.02578 -81.14340 906 ft 14 kts 139°
2026-04-28 22:39 43.02503 -81.14250 905 ft 15 kts 137°
2026-04-28 22:39 43.02418 -81.14147 902 ft 18 kts 139°
2026-04-28 22:40 43.02340 -81.14054 904 ft 13 kts 140°
2026-04-28 22:40 43.02322 -81.13965 906 ft 0 kts 60°
2026-04-28 22:40 43.02328 -81.13953 902 ft 5 kts 58°
2026-04-28 22:41 43.02332 -81.13944 902 ft 0 kts 54°
2026-04-28 22:41 43.02345 -81.13920 901 ft 6 kts 54°
2026-04-28 22:41 43.02376 -81.13869 901 ft 7 kts 41°
2026-04-28 22:42 43.02423 -81.13851 902 ft 5 kts 345°
2026-04-28 22:42 43.02516 -81.13950 902 ft 58 kts 319°
2026-04-28 22:42 43.03083 -81.14628 937 ft 154 kts 319°
2026-04-28 22:42 43.03996 -81.15744 1350 ft 196 kts 318°
2026-04-28 22:43 43.05101 -81.17074 2217 ft 219 kts 316°
2026-04-28 22:43 43.06402 -81.18361 3385 ft 248 kts 329°
2026-04-28 22:43 43.08107 -81.19024 3970 ft 263 kts 355°
2026-04-28 22:43 43.09907 -81.18444 4392 ft 275 kts 28°
2026-04-28 22:44 43.11246 -81.16472 4935 ft 299 kts 64°
2026-04-28 22:44 43.11733 -81.13655 6126 ft 309 kts 86°
2026-04-28 22:44 43.11701 -81.10739 7668 ft 305 kts 95°
2026-04-28 22:44 43.11498 -81.07848 9155 ft 306 kts 97°
2026-04-28 22:45 43.11277 -81.04932 10459 ft 313 kts 96°
2026-04-28 22:45 43.11099 -81.01864 11245 ft 336 kts 94°
2026-04-28 22:45 43.10993 -80.98574 12110 ft 352 kts 92°
2026-04-28 22:45 43.10953 -80.95236 13233 ft 359 kts 91°
2026-04-28 22:46 43.10951 -80.91785 14348 ft 366 kts 90°
2026-04-28 22:46 43.10969 -80.88266 15405 ft 373 kts 90°
2026-04-28 22:46 43.10991 -80.84683 16462 ft 380 kts 90°
2026-04-28 22:46 43.11012 -80.81036 17514 ft 387 kts 90°
2026-04-28 22:47 43.11028 -80.77323 18515 ft 394 kts 90°
2026-04-28 22:47 43.11040 -80.73540 19396 ft 401 kts 90°
2026-04-28 22:47 43.11047 -80.69703 20292 ft 407 kts 90°
2026-04-28 22:47 43.11051 -80.65805 21198 ft 413 kts 90°
2026-04-28 22:48 43.11053 -80.61884 21931 ft 411 kts 90°
2026-04-28 22:48 43.11053 -80.57918 22578 ft 421 kts 90°
2026-04-28 22:48 43.11052 -80.53878 23388 ft 428 kts 90°
2026-04-28 22:48 43.11049 -80.49781 24062 ft 434 kts 89°
2026-04-28 22:49 43.11046 -80.45616 24689 ft 441 kts 89°
2026-04-28 22:49 43.11041 -80.41442 25298 ft 447 kts 89°
2026-04-28 22:49 43.11035 -80.37159 25910 ft 453 kts 89°
2026-04-28 22:49 43.11027 -80.32821 26508 ft 459 kts 90°
2026-04-28 22:50 43.11017 -80.28398 26890 ft 471 kts 89°
2026-04-28 22:50 43.11005 -80.23833 26976 ft 489 kts 90°
2026-04-28 22:50 43.10991 -80.19091 26977 ft 507 kts 90°
2026-04-28 22:50 43.10974 -80.14184 26973 ft 524 kts 90°
2026-04-28 22:51 43.10954 -80.09118 26979 ft 540 kts 90°